Flag for United Kingdom Weather past 2 weeks in Milton Keynes, England, United Kingdom

Now
52 °F

Clear.


Feels Like: 51 °F
Forecast: 43 / 69 °F
Wind: 3 mph from North

Location: Luton Airport

Current Time: Jul 31, 2015 at 12:34:46 AM

Latest Report: Jul 31, 2015 at 12:20 AM


Visibility: 10 mi

Pressure: 30.15 "Hg

Humidity: 77%

Dew point: 45 °F

Location of Milton KeynesLocation

Historic Weather in Milton Keynes — Graph

°F

Milton Keynes temperature yesterday

Maximum temperature yesterday: 64 °F (at 2:50 PM)
Minimum temperature yesterday: 50 °F (at 4:20 AM)
Average temperature yesterday: 57 °F

Past Weeks' High & Low Weather Summary

 TemperatureHumidityPressure
High77 °F (Jul 21, 3:20 PM)100% (Jul 16, 1:20 AM)30.15 "Hg (Jul 16, 1:20 AM)
Low48 °F (Jul 23, 4:50 AM)31% (Jul 19, 5:20 PM)29.39 "Hg (Jul 27, 2:50 AM)
Average60 °F75%29.86 "Hg
* Reported Jul 15 11:20 PM — Jul 30 11:50 PM, Milton Keynes, Weather by CustomWeather, © 2015

Note: Actual official high and low records may vary slightly from our data, if they occured in-between our weather recording intervals... More about our weather records

Advertising

Milton Keynes weather history for previous 24 hours

 ConditionsComfort  
Time TempWeatherWind HumidityBarometerVisibility
11:50 PM
Thu, Jul 30
54 °FCool.No wind72%30.15 "HgN/A
11:20 PM54 °FClear.2 mph77%30.15 "HgN/A
10:20 PM54 °FOvercast.3 mph82%30.12 "HgN/A
9:50 PM55 °FSunny.2 mph72%30.12 "Hg10 mi
9:20 PM55 °FSunny.3 mph72%30.12 "Hg10 mi
8:50 PM55 °FSunny.No wind72%30.12 "Hg10 mi
8:20 PM59 °FCool.2 mph63%30.09 "HgN/A
7:50 PM59 °FSunny.2 mph63%30.09 "Hg10 mi
7:20 PM61 °FPassing clouds.5 mph55%30.09 "HgN/A
6:50 PM61 °FPassing clouds.7 mph59%30.09 "HgN/A
6:20 PM63 °FSunny.9 mph52%30.09 "Hg10 mi
5:50 PM63 °FSunny.10 mph45%30.09 "Hg10 mi
5:20 PM64 °FScattered clouds.9 mph40%30.09 "HgN/A
4:50 PM63 °FScattered clouds.10 mph49%30.09 "HgN/A
4:20 PM63 °FPassing clouds.12 mph49%30.09 "HgN/A
3:50 PM63 °FScattered clouds.12 mph49%30.09 "HgN/A
3:20 PM64 °FScattered clouds.12 mph52%30.09 "HgN/A
2:50 PM64 °FPassing clouds.12 mph49%30.07 "HgN/A
2:20 PM63 °FScattered clouds.12 mph52%30.07 "HgN/A
1:50 PM63 °FScattered clouds.12 mph52%30.07 "HgN/A
1:20 PM63 °FScattered clouds.12 mph59%30.07 "HgN/A
12:50 PM59 °FPartly sunny.14 mph68%30.07 "HgN/A
12:20 PM61 °FPartly sunny.13 mph59%30.07 "HgN/A
11:50 AM59 °FPartly sunny.13 mph68%30.07 "HgN/A
11:20 AM61 °FPartly sunny.13 mph63%30.07 "HgN/A
10:50 AM57 °FScattered clouds.13 mph72%30.07 "HgN/A
10:20 AM57 °FScattered clouds.14 mph72%30.04 "HgN/A
9:50 AM57 °FPartly sunny.13 mph72%30.04 "HgN/A
9:20 AM57 °FPartly sunny.12 mph72%30.04 "HgN/A
8:50 AM55 °FScattered clouds.14 mph77%30.04 "HgN/A
8:20 AM55 °FScattered clouds.13 mph77%30.04 "HgN/A
7:50 AM54 °FPassing clouds.14 mph82%30.04 "HgN/A
7:20 AM52 °FSunny.13 mph82%30.04 "Hg10 mi
6:50 AM52 °FSunny.13 mph82%30.01 "Hg10 mi
6:20 AM52 °FSunny.13 mph82%30.01 "Hg10 mi
5:50 AM50 °FClear.13 mph88%30.01 "Hg10 mi
5:20 AM50 °FClear.12 mph88%30.01 "Hg10 mi
4:50 AM50 °FClear.12 mph88%30.01 "Hg10 mi
4:20 AM50 °FClear.10 mph88%29.98 "Hg10 mi
3:50 AM52 °FClear.9 mph88%29.98 "Hg10 mi
3:20 AM52 °FClear.10 mph88%29.98 "Hg10 mi
2:50 AM54 °FClear.13 mph82%29.98 "Hg10 mi
2:20 AM54 °FClear.12 mph82%29.98 "Hg10 mi
1:50 AM54 °FCool.13 mph82%29.98 "HgN/A
1:20 AM54 °FClear.12 mph82%29.98 "Hg10 mi
12:50 AM54 °FCool.13 mph82%29.98 "HgN/A
12:20 AM55 °FPassing clouds.12 mph82%29.98 "HgN/A
Weather by CustomWeather, © 2015

See weather overviewHow to use our weather pages